Regional Weather Roundup
Issued by NWS

Home | Current Version | Previous Version | Graphics & Text | Print | Product List | Glossary On
Versions: 1 2 3 4 5 6 7 8 9 10 11 12 13 14 15 16 17 18 19 20 21 22 23 24 25 26 27 28 29 30 31 32 33 34 35 36 37 38 39 40 41 42 43 44 45 46 47 48 49 50
000
ASUS43 KIND 071359
RWRIN

WEATHER ROUNDUP FOR INDIANA
NATIONAL WEATHER SERVICE INDIANAPOLIS IN
1000 AM EDT TUE JUL 07 2015

NOTE: "FAIR" INDICATES FEW OR NO CLOUDS BELOW 12,000 FEET WITH NO
SIGNIFICANT WEATHER AND/OR OBSTRUCTIONS TO VISIBILITY.

* - STATION DOES NOT REPORT WEATHER SUCH AS PRECIPITATION OR FOG.

+ - STATION NOT QUALITY CONTROLLED BY THE NATIONAL WEATHER SERVICE.
    USE DATA WITH CAUTION...ESPECIALLY DEWPOINT AND RELATIVE
    HUMIDITY OBSERVATIONS.

INZ001>003-010>013-019-020-071500-
NORTHWEST INDIANA

CITY           SKY/WX    TMP DP  RH WIND       PRES   REMARKS
GARY /AIRPORT/ RAIN      59  57  94 N13G32    29.98R
KNOX *+        CLOUDY    61  61 100 NW9       29.92R
MONTICELLO +   CLOUDY    73  72  99 W3        29.88F
RENSSELAER +   LGT RAIN  61  61 100 N16       29.92R

$$

LMZ046-743>745-071500-
SOUTHERN LAKE MICHIGAN

STATION/POSITION TIME  TEMP    WIND        PRES    WAVE
                       AIR SEA DIR/SP/G            HT
                 (UTC) (F)     (DEG/KT/KT) (MB)    (FT)
BURNS HARBOR     1300   59     360/ 18/ 23 1014.9R
MICHIGAN CITY    1300   59     340/ 21/ 23   N/A
5NW MICH CITY    1300   58 66  360/ 19/ 25   N/A     6

$$

INZ004-005-014>016-021>024-071500-
NORTH CENTRAL INDIANA

CITY           SKY/WX    TMP DP  RH WIND       PRES   REMARKS
ELKHART        LGT RAIN  66  66 100 W12       29.90R
GOSHEN         LGT RAIN  72  70  93 SW6       29.88S
SOUTH BEND     LGT RAIN  63  61  93 NW12      29.92R
WARSAW +       RAIN      70  70 100 CALM      29.89S

$$

INZ006>009-017-018-025>027-071500-
NORTHEAST INDIANA

CITY           SKY/WX    TMP DP  RH WIND       PRES   REMARKS
ANGOLA *+      CLOUDY    72  63  73 SW6       29.88F
FORT WAYNE     HVY RAIN  72  69  90 W15       29.90S VSB 3/4

$$

INZ028-029-035-036-043>045-051>053-071500-
WEST CENTRAL INDIANA

CITY           SKY/WX    TMP DP  RH WIND       PRES   REMARKS
CRAWFORDSVL +  CLOUDY    71  70  95 CALM      29.91R
GREENCASTLE +  CLOUDY    73  70  88 S5        29.92S HAZE
LAFAYETTE      CLOUDY    74  72  93 W3        29.88F
TERRE HAUTE    CLOUDY    77  73  87 S9        29.91R

$$

INZ030>032-037>040-046>048-054>057-064-065-071500-
CENTRAL INDIANA

CITY           SKY/WX    TMP DP  RH WIND       PRES   REMARKS
ANDERSON       CLOUDY    77  70  78 S12       29.93F
COLUMBUS       PTSUNNY   75  72  88 S14       29.95F
FRANKFORT +    CLOUDY   N/A N/A N/A MISG      29.92F
GREENWOOD *+   CLOUDY    77  70  78 S8        29.94S
INDIANAPOLIS   CLOUDY    77  71  82 S13       29.92S
-EAGLE CREEK   CLOUDY    77  72  84 S6        29.91S
KOKOMO *+      CLOUDY    72  68  88 SW6       29.92R
MT COMFORT *+  CLOUDY    77 N/A N/A SW8       29.93S
SHELBYVILLE    CLOUDY    79  73  82 S12       29.93S

$$

INZ033-034-041-042-049-050-058-059-071500-
EAST CENTRAL INDIANA

CITY           SKY/WX    TMP DP  RH WIND       PRES   REMARKS
MUNCIE         CLOUDY    78  72  81 SW13G21   29.92S

$$

INZ060-061-067>069-081>083-085>088-071500-
SOUTHWEST INDIANA

CITY           SKY/WX    TMP DP  RH WIND       PRES   REMARKS
EVANSVILLE     HVY RAIN  73  71  93 W3        29.97R FOG

$$

INZ062-063-066-070>080-084-089>092-071500-
SOUTH CENTRAL AND SOUTHEAST INDIANA

CITY           SKY/WX    TMP DP  RH WIND       PRES   REMARKS
BLOOMINGTON    LGT RAIN  76  72  87 S10       29.95R
MADISON *+     CLOUDY    75  70  83 S9        30.02S
SEYMOUR +      LGT RAIN  75  73  94 S5        29.97S

$$



USA.gov is the U.S. government's official web portal to all federal, state and local government web resources and services.